Simultaneous Nadir Overpasses (SNOs) Predictions

Prediction of SNOs between NOAA-19 and TERRA Satellite Orbit:

Table of predicted SNOs for the next 14.0 days since TLE Epoch: 12/15/2018
Index Date (NOAA-19) Time (NOAA-19) Lat,Lon (NOAA-19) SZA (NOAA-19 ) Date (TERRA) Time (TERRA) Lat,Lon (TERRA) SZA (TERRA ) Distance(km) Time Diff (sec)
1 12/16/2018 18:14:18 -77.81, 105.69 78.22 12/16/2018 18:14:48 -77.82, 105.60 78.21 2.31 30
2 12/16/2018 19:05:24 77.80, -86.98 101.78 12/16/2018 19:04:15 77.78, -86.96 101.74 2.25 69
3 12/18/2018 23:47:55 77.85,-157.82 101.87 12/18/2018 23:48:31 77.84,-157.74 101.87 1.93 36
4 12/19/2018 00:38:48 -77.79, 9.78 78.17 12/19/2018 00:37:59 -77.81, 9.74 78.18 2.19 49
5 12/21/2018 05:21:19 -77.84, -61.05 78.12 12/21/2018 05:22:15 -77.87, -61.07 78.09 2.70 56
6 12/21/2018 06:12:24 77.83, 106.25 101.87 12/21/2018 06:11:41 77.81, 106.34 101.85 2.81 43
7 12/23/2018 10:54:54 77.85, 35.58 101.87 12/23/2018 10:55:57 77.86, 35.48 101.89 2.62 63
8 12/23/2018 11:45:48 -77.82,-156.97 78.16 12/23/2018 11:45:25 -77.83,-157.02 78.16 1.75 23
9 12/25/2018 16:28:29 -78.25, 129.98 77.96 12/25/2018 16:29:35 -78.14, 133.31 77.84 76.66 66
10 12/25/2018 17:19:24 77.84, -60.39 101.80 12/25/2018 17:19:07 77.86, -60.32 101.82 2.83 17
11 12/27/2018 22:52:49 -77.85, 36.25 78.30 12/27/2018 22:52:51 -77.86, 36.26 78.29 1.05 2




NCC Satellite Simultaneous Nadir Overpasses (SNOs) Prediction Service
